| time (UTC) | temp F | wind direction | speed MPH | gust MPH | rain 1hr in | rain 24hr in | rain mn in | humidity % | barometer mb |
| 20260504081541 | 70 | 234 | 4.0 | 5.0 | 0.00 | 0.00 | 0.00 | 47 | 1013.1 |
| 20260504044551 | 58 | 251 | 4.0 | 9.0 | 0.00 | 0.00 | 0.00 | 55 | 1012.1 |
| 20260504043046 | 57 | 196 | 4.0 | 12.0 | 0.00 | 0.00 | 0.00 | 55 | 1012.1 |
| 20260504041541 | 58 | 213 | 5.0 | 10.0 | 0.00 | 0.00 | 0.00 | 55 | 1011.9 |
| 20260504040043 | 57 | 179 | 5.0 | 8.0 | 0.00 | 0.00 | 0.00 | 55 | 1011.7 |
| 20260504034551 | 57 | 201 | 4.0 | 7.0 | 0.00 | 0.00 | 0.00 | 55 | 1011.8 |
| 20260504033051 | 57 | 168 | 5.0 | 8.0 | 0.00 | 0.00 | 0.00 | 55 | 1011.6 |
| 20260504031538 | 57 | 198 | 3.0 | 7.0 | 0.00 | 0.00 | 0.00 | 54 | 1011.7 |
| 20260504030036 | 58 | 129 | 4.0 | 9.0 | 0.00 | 0.00 | 0.00 | 54 | 1011.8 |
| 20260504024545 | 58 | 203 | 5.0 | 9.0 | 0.00 | 0.00 | 0.00 | 53 | 1011.7 |
| 20260504023043 | 58 | 200 | 4.0 | 7.0 | 0.00 | 0.00 | 0.00 | 53 | 1011.8 |
| 20260504021542 | 58 | 196 | 4.0 | 7.0 | 0.00 | 0.00 | 0.00 | 53 | 1011.8 |
| 20260504020041 | 58 | 197 | 3.0 | 7.0 | 0.00 | 0.00 | 0.00 | 52 | 1011.9 |
| 20260504014536 | 59 | 143 | 5.0 | 8.0 | 0.00 | 0.00 | 0.00 | 52 | 1011.9 |
| 20260504013043 | 59 | 221 | 4.0 | 8.0 | 0.00 | 0.00 | 0.00 | 50 | 1011.8 |
| 20260504011545 | 59 | 206 | 3.0 | 6.0 | 0.00 | 0.00 | 0.00 | 50 | 1011.8 |
| 20260504010052 | 60 | 202 | 4.0 | 10.0 | 0.00 | 0.00 | 0.00 | 49 | 1011.8 |
| 20260504004542 | 61 | 216 | 4.0 | 8.0 | 0.00 | 0.00 | 0.00 | 48 | 1011.9 |
| 20260504003038 | 61 | 181 | 6.0 | 10.0 | 0.00 | 0.00 | 0.00 | 47 | 1011.9 |
| 20260504001541 | 61 | 163 | 5.0 | 10.0 | 0.00 | 0.00 | 0.00 | 47 | 1011.8 |
| 20260504000045 | 61 | 181 | 5.0 | 9.0 | 0.00 | 0.00 | 0.00 | 46 | 1011.9 |
| 20260503234544 | 62 | 203 | 4.0 | 9.0 | 0.00 | 0.00 | 0.00 | 45 | 1011.9 |
| 20260503233041 | 62 | 176 | 4.0 | 9.0 | 0.00 | 0.00 | 0.00 | 44 | 1012.0 |
| 20260503231538 | 63 | 133 | 5.0 | 9.0 | 0.00 | 0.00 | 0.00 | 44 | 1011.9 |
| 20260503230040 | 63 | 148 | 4.0 | 9.0 | 0.00 | 0.00 | 0.00 | 43 | 1011.9 |
| 20260503224542 | 64 | 211 | 4.0 | 8.0 | 0.00 | 0.00 | 0.00 | 42 | 1012.1 |
| 20260503223046 | 65 | 168 | 6.0 | 11.0 | 0.00 | 0.00 | 0.00 | 41 | 1012.0 |
| 20260503221544 | 65 | 127 | 5.0 | 11.0 | 0.00 | 0.00 | 0.00 | 40 | 1012.0 |
| 20260503220103 | 65 | 141 | 4.0 | 10.0 | 0.00 | 0.00 | 0.00 | 39 | 1012.1 |
| 20260503214540 | 65 | 134 | 5.0 | 9.0 | 0.00 | 0.00 | 0.00 | 38 | 1012.2 |
| 20260503213042 | 66 | 168 | 3.0 | 8.0 | 0.00 | 0.00 | 0.00 | 37 | 1012.1 |
| 20260503211557 | 66 | 230 | 3.0 | 7.0 | 0.00 | 0.00 | 0.00 | 37 | 1012.2 |
| 20260503210035 | 66 | 206 | 4.0 | 7.0 | 0.00 | 0.00 | 0.00 | 35 | 1012.2 |
| 20260503204542 | 67 | 220 | 3.0 | 7.0 | 0.00 | 0.00 | 0.00 | 35 | 1012.4 |
| 20260503203041 | 67 | 212 | 3.0 | 6.0 | 0.00 | 0.00 | 0.00 | 35 | 1012.2 |
| 20260503201542 | 67 | 180 | 4.0 | 6.0 | 0.00 | 0.00 | 0.00 | 34 | 1012.2 |
| 20260503200042 | 68 | 167 | 3.0 | 5.0 | 0.00 | 0.00 | 0.00 | 33 | 1012.3 |
| 20260503194545 | 68 | 200 | 3.0 | 6.0 | 0.00 | 0.00 | 0.00 | 33 | 1012.4 |
| 20260503193043 | 68 | 158 | 3.0 | 5.0 | 0.00 | 0.00 | 0.00 | 32 | 1012.3 |
| 20260503191542 | 68 | 160 | 3.0 | 4.0 | 0.00 | 0.00 | 0.00 | 32 | 1012.3 |
| 20260503190042 | 69 | 160 | 3.0 | 5.0 | 0.00 | 0.00 | 0.00 | 32 | 1012.4 |
| 20260503184541 | 70 | 167 | 2.0 | 4.0 | 0.00 | 0.00 | 0.00 | 31 | 1012.5 |
| 20260503183043 | 71 | 153 | 2.0 | 4.0 | 0.00 | 0.00 | 0.00 | 30 | 1012.2 |
| 20260503181616 | 72 | 184 | 2.0 | 5.0 | 0.00 | 0.00 | 0.00 | 28 | 1012.2 |
| 20260503180041 | 74 | 134 | 2.0 | 6.0 | 0.00 | 0.00 | 0.00 | 27 | 1012.0 |
| 20260503174542 | 75 | 139 | 2.0 | 5.0 | 0.00 | 0.00 | 0.00 | 25 | 1011.9 |
| 20260503173053 | 76 | 150 | 3.0 | 6.0 | 0.00 | 0.00 | 0.00 | 24 | 1012.0 |
| 20260503171540 | 77 | 162 | 3.0 | 7.0 | 0.00 | 0.00 | 0.00 | 24 | 1012.0 |